Regional Weather Roundup
Issued by NWS Midland/Odessa, TX

Home | Current Version | Previous Version | Text Only | Print | Product List | Glossary On
Versions: 1 2 3 4 5 6 7 8 9 10 11 12 13 14 15 16 17 18 19 20 21 22 23 24 25 26 27 28 29 30 31 32 33 34 35 36 37 38 39 40 41 42 43 44 45 46 47 48 49 50
000
ASUS44 KMAF 140510
RWRMAF
MIDLAND AREA WEATHER ROUNDUP
NATIONAL WEATHER SERVICE MIDLAND TX
1200 AM CDT MON JUL 14 2014

...IN SOUTHWEST TEXAS AND SOUTHEAST NEW MEXICO...

CITY           SKY/WX    TMP DP  RH WIND       PRES   REMARKS
ALPINE         CLEAR     76  56  50 S12       30.25R
ANDREWS        FAIR      81  56  42 S7        30.13R
ARTESIA        CLEAR     81  52  36 SE6       30.13R
BIG SPRING     CLEAR     82  54  39 SE7       30.12R
CARLSBAD       CLEAR     85  54  34 SE12      30.10R
DRYDEN           N/A     85  60  42 E9        30.08R
FORT STOCKTON  CLEAR     80  58  46 SE12      30.13R
GUAD PASS      CLEAR     74  54  49 NE20        N/A
HOBBS          CLEAR     77  54  44 SE5       30.17R
MARFA          CLEAR     72  57  60 E7        30.24R
MIDLAND AIRPK  CLEAR     84  56  38 S12       30.12R
MIDLAND INTL   CLEAR     83  58  42 S12       30.11R
ODESSA         CLEAR     83  56  39 S14       30.12R
PECOS          CLEAR     81  58  44 SE16      30.07R
PRESIDIO       FAIR      87  59  38 MISG      30.05R
SEMINOLE       CLEAR     78  55  43 CALM      30.15R
SNYDER         CLEAR     84  55  36 SE8       30.09R
WINK           CLEAR     84  58  40 SE14      30.08R
$$
...OTHER STATIONS IN TEXAS...

CITY           SKY/WX    TMP DP  RH WIND       PRES   REMARKS
ABILENE        CLEAR     84  55  36 S10       30.05R
AMARILLO       CLOUDY    72  66  81 NE10      30.18R
AUSTIN         PTCLDY    80  68  66 S5        30.02R
BROWNSVILLE    CLEAR     77  74  90 CALM      30.04R
CORPUS CHRISTI PTCLDY    79  74  84 S6        30.02R
DALLAS FTW     PTCLDY    86  65  49 S8        29.98S
DEL RIO        CLEAR     83  64  52 E7        30.00R
EL PASO        MOCLDY    84  56  38 N16       30.11R
HOUSTON INT    PTCLDY    79  71  76 S6        30.01S
LUBBOCK        PTCLDY    78  56  46 SE7       30.13R
SAN ANGELO     CLEAR     80  59  48 S8        30.06R
SAN ANTONIO    CLEAR     84  68  58 S12       30.05R
WACO           PTCLDY    84  68  58 SE8       30.01R
WICHITA FALLS  NOT AVBL
$$
...OTHER LOCATIONS IN NEW MEXICO...

CITY           SKY/WX    TMP DP  RH WIND       PRES   REMARKS
ALAMAGORDO     PTCLDY    68  57  68 SW3       30.17R
ALBUQUERQUE    CLOUDY    72  54  53 E10       30.27R
CANNON AFB     MOCLDY    74  63  68 E5        30.21R
CLOVIS         NOT AVBL
HOLLOMAN AFB   PTCLDY    73  56  54 S12       30.16R
ROSWELL        MOCLDY    80  55  42 N15       30.16R
RUIDOSO        MOCLDY    59  55  88 SW7       30.40R
SANTA FE       CLOUDY    63  54  72 S8        30.36R
TRUTH OR CONSE CLOUDY    72  58  61 W15G24    30.22R
TUCUMCARI      MOCLDY    75  57  53 W5        30.20R
$$



USA.gov is the U.S. government's official web portal to all federal, state and local government web resources and services.